Location: Anton
(37.3520°N, 87.3947°W)
Time: 18:49:07
(UTC+00:00)

ISS - Visible Passes

Search period start: 08 December 2022 00:00
Search period end: 18 December 2022 00:00
Orbit: 414 x 420 km, 51.6° (Epoch: 08 December)

Date Brightness Start Highest point End Pass type
(mag) Time Alt. Az. Time Alt. Az. Time Alt. Az.
08 Dec -0.8 23:54:35 10° W 23:56:57 18° SW 23:59:20 10° S visible
09 Dec -1.8 23:05:50 10° WNW 23:08:53 33° SW 23:11:55 10° SSE visible
11 Dec 0.2 23:08:03 10° WSW 23:08:49 11° SW 23:09:36 10° SW visible
15 Dec -0.1 11:48:08 10° SE 11:49:05 11° SE 11:50:02 10° ESE visible
17 Dec -1.9 11:45:45 10° SSW 11:48:49 33° SE 11:51:53 10° ENE visible
